Theta_e
309 308 309 309 310 310 311 312 312 312 313 312 314 315 316 317 316 303 299 303 307 313 314 304 304 304 304 305 310 312 304 302 302 301 303 298 299 296 297 296 295 295 296 296 298
308 308 308 308 309 309 310 310 311 311 312 312 311 312 315 315 308 300 304 309 310 311 301 300 300 301 301 303 307 307 304 304 305 305 302 298 299 298 297 295 295 294 293 296 296
307 307 307 308 308 308 309 310 310 310 311 311 310 311 314 313 300 297 305 307 308 308 301 300 300 301 299 303 304 305 303 304 300 298 296 297 296 297 298 296 300 297 293 293 294
307 307 306 307 308 308 309 309 310 310 310 310 310 310 313 307 290 295 304 305 306 302 300 299 300 298 297 297 301 300 299 300 299 297 296 295 296 295 297 300 295 297 295 294 293
307 306 306 306 307 308 309 309 309 310 310 309 308 310 307 297 296 295 300 297 298 299 298 299 299 298 295 297 297 298 297 296 294 295 296 296 295 297 296 296 294 295 294 293 294
306 306 306 306 306 307 308 309 309 309 309 307 307 310 300 289 294 294 294 295 296 298 298 299 299 300 297 295 296 295 294 293 292 293 293 293 295 294 297 293 292 292 292 294 294
305 305 305 305 306 306 308 308 309 309 308 306 308 307 297 294 294 295 294 294 295 296 297 298 299 297 297 293 293 291 290 290 290 291 292 293 294 292 295 293 292 292 292 293 294
305 304 305 305 305 306 307 308 309 309 307 304 310 298 292 293 296 293 294 294 296 296 298 297 298 297 295 294 291 289 289 287 287 288 290 291 292 298 292 292 292 292 292 291 293
305 305 305 305 305 306 307 308 309 307 306 304 296 293 290 295 291 291 292 292 294 296 296 297 297 294 292 291 289 288 287 284 287 287 287 290 291 288 289 291 292 292 291 291 291
305 305 304 305 304 305 307 307 304 298 298 295 292 289 290 287 289 290 292 292 294 295 294 294 294 291 290 290 284 287 286 286 288 286 285 286 287 290 287 289 291 291 291 290 290
305 305 304 304 304 305 304 296 292 290 290 290 288 287 287 289 290 289 290 291 294 293 288 290 288 285 288 291 291 289 287 287 286 284 284 286 287 290 290 287 289 291 290 290 290
306 304 304 303 304 305 298 291 291 290 287 286 286 286 287 288 285 287 291 289 290 286 288 286 284 289 287 288 287 286 286 286 284 282 282 284 283 288 289 288 289 289 290 290 290
306 304 303 303 303 301 293 292 293 292 286 284 285 285 285 287 285 285 288 289 287 284 285 284 283 283 284 284 283 285 284 285 283 282 282 281 284 287 287 288 289 290 292 292 291
305 303 302 302 297 294 291 293 295 293 286 283 282 284 285 286 283 286 287 287 284 284 284 284 282 281 282 282 284 282 285 284 282 282 280 281 279 286 286 284 283 286 289 291 290
305 303 302 301 293 290 291 293 295 294 279 282 280 287 285 283 283 283 286 286 283 282 283 281 279 280 280 281 283 282 281 282 281 281 279 279 278 284 281 282 284 284 286 289 291
305 303 301 299 295 293 294 294 293 286 277 279 280 280 280 281 281 283 283 286 283 281 280 278 279 280 281 279 280 282 281 280 280 279 276 280 278 282 285 284 288 288 287 287 290
305 303 299 298 291 293 294 291 284 279 281 280 278 279 279 278 279 280 280 280 280 278 277 277 278 278 280 279 280 280 280 277 275 274 274 275 275 282 287 286 286 288 288 288 289
304 301 296 294 294 294 292 287 276 280 279 278 278 278 278 279 277 278 278 278 279 279 277 277 276 277 279 279 279 278 280 279 274 274 277 274 273 282 286 286 285 286 286 288 287
301 293 293 293 294 294 287 279 282 279 280 278 277 277 277 277 278 277 277 278 281 281 280 277 275 276 276 278 279 278 276 280 276 268 273 279 281 284 286 285 285 284 283 285 286
292 290 289 292 294 291 285 280 280 281 280 279 280 279 278 276 276 276 276 281 278 280 282 280 276 274 275 277 277 277 278 276 277 273 273 277 276 281 285 286 287 284 284 285 286
289 284 288 292 292 286 278 278 279 281 281 279 280 277 278 277 278 277 280 278 279 278 281 281 279 272 274 274 276 274 276 275 276 276 275 274 279 288 288 286 285 286 286 285 286
286 282 288 292 282 274 278 278 281 280 281 280 281 280 280 277 277 276 278 279 280 281 277 281 280 274 274 274 274 274 277 278 277 275 273 273 278 285 285 285 284 284 285 286 286
284 281 288 289 277 278 279 276 279 279 279 281 280 281 280 279 279 278 277 279 280 281 281 280 278 275 273 273 272 272 275 276 276 276 275 275 278 281 282 283 284 283 285 284 285
283 278 282 285 282 280 280 278 278 281 281 281 281 280 278 277 279 279 277 277 279 280 283 281 276 276 276 276 275 270 272 274 276 275 275 276 278 284 285 285 286 285 284 284 284
285 282 282 276 278 278 279 279 277 277 280 281 278 280 280 277 276 276 277 276 277 280 281 279 275 270 272 273 272 274 272 272 272 275 274 278 279 282 284 284 286 286 284 282 282
283 282 283 281 279 278 279 278 278 279 279 277 278 280 279 278 280 278 278 278 279 276 278 275 276 268 273 272 271 270 272 272 275 275 276 277 277 284 284 283 283 284 284 282 282
287 286 284 282 279 278 278 279 279 281 282 283 281 280 279 280 284 285 285 286 285 281 276 276 276 272 271 271 271 270 272 273 276 276 277 274 280 284 282 282 283 284 286 283 284
Wind_Speed
5 5 6 7 7 8 8 9 9 9 10 10 11 11 10 12 13 3 5 2 4 7 7 5 3 1 3 4 2 2 6 10 6 5 2 8 9 2 2 5 2 2 1 2 21
5 6 7 7 7 8 9 8 9 9 11 10 10 10 10 10 4 7 3 4 4 4 2 2 3 2 3 4 3 6 6 8 1 2 1 7 8 9 6 7 6 5 6 15 18
5 7 8 9 9 7 9 9 8 9 10 11 10 9 8 8 4 0 5 5 5 2 1 1 1 2 5 3 5 3 8 1 2 1 2 3 5 5 6 8 8 10 15 18 18
6 7 8 9 9 10 9 9 9 8 10 9 9 9 8 3 5 3 7 7 5 2 3 3 4 4 5 7 4 6 3 2 1 1 3 3 3 5 10 1 2 0 18 21 19
7 8 9 9 10 10 10 10 9 9 9 8 6 6 4 4 3 1 6 4 1 2 4 5 7 5 7 4 5 6 4 3 0 2 2 3 6 7 10 4 3 9 17 19 17
8 7 9 9 10 11 11 11 11 10 8 6 3 2 3 7 2 4 5 1 2 3 2 4 4 3 2 2 5 0 3 4 4 3 2 6 5 4 5 6 7 12 16 16 17
7 9 9 9 11 11 12 11 10 10 9 5 3 3 3 3 0 3 5 1 1 0 2 2 1 4 5 4 3 3 3 3 6 4 4 3 8 12 5 9 10 13 14 15 17
8 9 9 9 11 12 12 12 11 9 7 2 4 3 4 1 1 2 4 2 1 0 1 0 1 4 0 6 3 3 2 5 4 6 2 5 15 5 9 12 13 14 14 15 17
8 8 9 10 11 11 12 13 12 9 6 1 3 3 2 2 2 2 3 1 1 1 1 2 1 2 3 5 3 4 7 7 3 8 2 11 11 4 6 10 13 14 15 15 15
7 9 9 10 11 11 13 13 6 2 3 2 1 3 3 2 0 1 1 2 2 5 4 2 2 5 4 9 11 8 7 6 8 5 6 9 20 7 8 11 14 14 15 16 17
7 8 8 9 10 10 7 0 3 4 4 4 1 2 1 1 0 2 3 2 3 3 7 3 8 13 17 15 9 2 5 7 3 3 5 13 18 17 12 12 15 16 17 18 19
9 7 7 9 10 9 1 4 2 3 4 1 1 1 1 2 2 2 1 6 6 7 7 4 13 8 2 6 8 9 13 13 2 3 5 9 19 19 16 18 20 20 20 20 18
9 5 7 8 9 3 4 3 0 2 3 1 1 2 1 1 1 4 2 4 3 6 10 11 2 1 4 5 10 11 16 12 8 3 6 8 20 19 12 20 16 20 21 21 22
10 5 5 7 4 0 4 3 1 2 1 4 4 2 2 1 3 1 2 1 2 7 6 7 2 3 5 6 9 13 7 7 6 5 10 2 13 11 6 14 14 18 21 21 22
10 6 5 4 3 3 2 2 1 2 4 5 3 1 2 2 3 2 1 1 4 6 5 3 4 5 6 4 6 2 1 5 4 9 6 9 10 7 1 11 19 18 22 23 23
10 7 2 2 1 2 0 2 3 1 10 4 2 4 5 2 2 2 2 5 2 3 1 2 1 2 1 2 0 7 4 3 2 2 9 12 12 15 14 13 13 13 22 23 23
11 8 4 1 1 1 1 2 2 6 2 4 4 5 3 4 3 3 5 6 6 5 7 3 3 2 2 4 2 4 6 3 5 5 9 2 10 17 12 12 11 11 13 21 21
13 9 2 0 2 1 1 2 6 1 5 1 4 5 4 6 1 4 4 4 6 2 3 6 5 9 6 2 2 9 3 5 8 6 5 3 12 8 10 10 11 10 7 13 20
17 3 2 4 2 2 2 6 7 6 5 11 5 4 5 3 3 5 7 4 5 12 8 6 3 1 1 1 3 7 9 2 2 2 5 8 10 13 14 17 11 10 9 15 19
4 4 1 6 3 1 1 10 5 3 5 3 6 1 6 5 6 8 8 5 3 6 1 2 3 1 2 2 1 3 1 4 3 5 9 8 7 11 8 9 12 13 16 13 16
4 4 1 3 1 1 7 7 6 4 4 5 5 5 3 7 4 6 6 3 3 3 4 2 2 3 1 10 10 6 5 3 3 4 6 9 8 7 12 4 10 11 11 12 14
3 2 3 3 3 1 7 6 3 2 2 3 2 3 6 8 6 4 6 4 7 7 6 3 1 5 6 2 3 3 5 10 6 7 6 5 14 2 6 8 8 9 9 11 13
3 2 3 4 7 8 3 5 4 3 4 6 6 5 2 8 5 9 7 3 8 6 6 6 5 3 3 2 1 6 8 7 4 3 15 12 9 1 3 8 7 10 7 8 11
2 4 3 2 1 4 11 6 7 5 4 5 3 3 3 5 5 3 6 3 5 5 5 4 3 5 10 2 4 6 8 14 10 10 16 20 28 20 17 18 16 6 6 6 10
2 3 2 5 5 8 5 3 8 8 5 5 5 9 7 5 3 5 4 5 3 6 6 4 6 3 4 6 4 4 6 13 19 24 17 20 28 21 16 20 21 14 5 6 10
3 3 1 1 2 7 10 7 11 6 8 6 11 11 9 13 15 4 6 4 5 1 5 1 8 1 9 3 9 11 14 15 22 23 27 26 37 18 15 10 12 15 11 11 15
1 0 1 4 2 3 4 8 8 5 5 12 9 9 10 20 13 5 7 12 11 9 10 6 4 4 11 2 6 14 21 24 19 15 18 24 32 16 18 20 22 23 18 15 15
Wind_Direction
334 349 329 317 321 312 315 317 313 318 322 323 326 328 327 318 308 206 235 14 317 321 313 282 253 206 245 186 187 230 231 246 237 188 216 161 193 138 88 139 184 129 352 52 140
335 337 328 317 314 315 315 317 316 319 318 319 320 321 318 323 280 239 91 325 309 322 276 308 218 183 199 191 194 219 236 245 278 206 204 184 215 170 185 169 193 172 108 136 152
325 325 327 328 323 313 308 306 315 318 318 315 311 313 309 312 255 102 0 321 303 280 275 285 203 233 198 214 189 196 240 199 150 30 56 206 218 174 203 210 201 202 159 162 166
316 319 321 321 322 311 306 310 311 311 308 313 313 309 308 239 234 118 336 325 305 191 196 178 194 192 212 200 177 229 213 182 174 105 138 184 147 219 223 34 41 89 164 165 174
313 317 314 315 315 308 304 298 301 308 310 312 301 304 270 203 257 32 333 335 239 192 220 200 197 191 206 207 166 224 179 179 268 225 144 152 224 255 234 169 111 137 160 172 176
299 307 310 311 312 309 307 306 309 306 305 300 284 295 226 221 98 340 343 334 70 237 201 216 238 208 177 185 229 324 161 176 187 190 196 227 221 218 190 154 144 160 173 179 181
297 304 310 315 315 306 306 301 304 301 301 301 166 168 220 251 335 349 19 44 351 261 203 238 258 227 152 157 148 129 183 251 197 188 210 205 238 228 156 174 175 182 181 182 186
294 295 302 315 315 307 302 301 294 293 293 305 135 171 240 138 131 55 340 124 341 249 248 311 206 108 222 131 120 175 235 238 135 170 200 204 257 196 168 177 191 190 187 188 190
278 290 299 312 312 308 303 298 292 286 270 169 206 248 218 153 168 5 354 127 257 158 116 101 81 102 146 194 194 204 243 212 245 211 167 214 263 123 182 202 202 198 195 195 192
264 287 299 307 312 310 306 300 286 251 113 135 248 240 162 179 86 5 72 300 206 141 129 165 132 196 189 197 226 218 222 223 238 169 220 222 250 221 198 210 217 210 203 204 205
248 277 295 308 313 314 331 302 186 195 215 225 146 9 85 27 268 58 21 165 159 189 191 165 207 217 216 220 260 261 234 244 190 160 230 241 256 255 214 215 224 217 210 210 210
244 261 289 304 312 311 310 242 297 8 240 187 105 147 46 328 146 134 300 187 190 200 145 170 233 226 50 209 225 243 251 248 253 174 218 269 266 264 237 227 218 213 211 210 204
211 237 278 295 309 291 243 247 228 268 260 135 171 191 124 202 273 153 282 168 187 184 201 223 105 159 187 190 210 233 238 246 256 192 237 287 273 253 231 232 221 219 214 209 203
201 211 266 298 282 250 236 135 134 279 351 192 188 137 137 166 198 352 344 253 123 222 182 243 136 165 178 220 212 248 227 223 209 230 263 254 286 255 233 231 220 221 214 207 201
202 190 240 251 323 223 17 164 203 220 264 86 138 105 135 203 112 81 21 167 185 160 195 155 178 182 199 199 188 249 175 190 209 240 289 212 266 248 130 250 237 216 212 207 200
193 185 204 161 222 291 239 172 228 109 244 146 123 158 148 143 109 129 104 60 70 132 77 69 13 262 64 110 78 140 118 91 101 230 252 234 227 266 230 226 240 227 213 206 200
182 172 163 149 315 7 216 207 104 215 30 175 162 176 177 150 142 175 166 171 184 160 209 161 197 148 222 138 122 208 170 196 222 207 256 117 228 255 300 256 238 247 219 208 198
166 146 78 280 348 199 186 108 207 205 213 133 125 125 185 151 126 149 151 217 214 148 142 200 229 182 157 275 193 188 233 213 252 224 284 144 239 254 249 292 268 255 261 208 196
128 87 82 19 349 278 188 205 210 196 146 158 127 178 183 191 180 173 204 218 218 187 200 177 230 95 35 16 278 170 215 52 43 120 267 230 256 270 258 267 254 252 228 213 203
110 98 98 338 353 243 152 238 234 184 137 182 187 219 175 184 190 200 176 169 221 193 35 188 245 26 113 220 116 277 69 161 195 244 248 241 261 248 283 251 242 234 230 220 197
68 112 32 339 139 59 221 237 257 219 165 186 205 154 163 165 200 220 172 169 199 153 158 143 221 96 187 206 185 169 201 211 298 233 261 282 261 222 244 336 291 283 241 219 206
100 168 0 294 123 359 224 203 245 211 171 242 283 181 174 150 185 233 216 250 172 158 167 177 185 204 205 64 351 331 225 188 222 212 244 289 260 225 269 281 282 285 245 211 196
97 95 15 310 181 211 250 272 270 162 212 199 231 218 154 176 224 204 195 128 163 170 168 175 222 230 218 178 58 224 202 230 302 326 243 251 251 13 295 302 291 296 295 223 191
107 142 119 223 36 233 214 249 232 204 241 208 177 108 146 205 246 178 180 149 187 177 141 171 192 242 242 66 104 199 211 212 210 242 253 239 266 262 283 305 306 315 284 248 208
21 34 36 188 237 210 181 236 222 225 221 202 209 214 173 197 203 223 187 140 185 215 136 196 242 190 252 260 229 238 210 204 210 230 239 262 260 264 260 264 274 301 260 208 217
3 351 11 278 228 221 194 209 228 220 170 226 236 221 207 230 224 221 152 167 201 150 176 134 250 125 263 243 241 259 232 224 225 233 250 260 268 260 272 272 274 266 268 217 213
25 329 143 319 318 182 206 227 247 295 254 262 241 254 230 237 243 278 216 208 206 177 189 179 203 199 267 239 293 265 229 220 233 219 232 244 252 266 249 249 245 254 249 236 219